ITAMSAT

Last updated on Wed Feb 06 2019 03:04:42 GMT+0000 (Coordinated Universal Time)

1 22826U 93061D 19036.87521718 -.00000019 00000-0 10487-4 0 9992 2 22826 98.8853 22.5720 0009311 21.3083 338.8485 14.30383340323165

Satellite not in orbit

ITAMSAT